TimeEDT,TemperatureF,Dew PointF,Humidity,Sea Level PressureIn,VisibilityMPH,Wind Direction,Wind SpeedMPH,Gust SpeedMPH,PrecipitationIn,Events,Conditions,WindDirDegrees,DateUTC
12:56 AM,75.9,68.0,76,29.87,10.0,WSW,8.1,-,N/A,,Clear,240,2013-08-31 04:56:00
1:56 AM,75.0,68.0,79,29.85,10.0,WSW,8.1,-,N/A,,Clear,250,2013-08-31 05:56:00
2:56 AM,73.0,68.0,84,29.85,9.0,Calm,Calm,-,N/A,,Partly Cloudy,0,2013-08-31 06:56:00
3:56 AM,72.0,68.0,87,29.85,10.0,Calm,Calm,-,N/A,,Scattered Clouds,0,2013-08-31 07:56:00
4:56 AM,72.0,68.0,87,29.85,10.0,Calm,Calm,-,N/A,,Clear,0,2013-08-31 08:56:00
5:56 AM,71.1,66.9,87,29.86,10.0,Calm,Calm,-,N/A,,Clear,0,2013-08-31 09:56:00
6:56 AM,70.0,66.9,90,29.86,8.0,Calm,Calm,-,N/A,,Clear,0,2013-08-31 10:56:00
7:56 AM,73.0,68.0,84,29.86,10.0,Calm,Calm,-,N/A,,Clear,0,2013-08-31 11:56:00
8:56 AM,75.0,69.1,82,29.86,10.0,WSW,5.8,-,N/A,,Partly Cloudy,240,2013-08-31 12:56:00
9:56 AM,77.0,70.0,79,29.86,9.0,West,4.6,-,N/A,,Clear,270,2013-08-31 13:56:00
10:56 AM,82.0,71.1,69,29.86,10.0,WSW,6.9,-,N/A,,Scattered Clouds,250,2013-08-31 14:56:00
11:56 AM,84.9,71.1,63,29.84,10.0,West,8.1,-,0.00,,Scattered Clouds,280,2013-08-31 15:56:00
12:56 PM,86.0,71.1,61,29.83,10.0,SW,5.8,-,N/A,,Partly Cloudy,220,2013-08-31 16:56:00
1:56 PM,86.0,72.0,63,29.82,10.0,South,5.8,-,0.00,,Clear,170,2013-08-31 17:56:00
2:56 PM,87.1,71.1,59,29.80,10.0,Variable,4.6,-,N/A,,Partly Cloudy,0,2013-08-31 18:56:00
3:56 PM,86.0,70.0,59,29.79,10.0,SSW,5.8,-,N/A,,Partly Cloudy,210,2013-08-31 19:56:00
4:56 PM,84.0,69.1,61,29.79,10.0,SSW,5.8,-,0.00,Rain,Light Rain,210,2013-08-31 20:56:00
5:56 PM,82.0,71.1,69,29.79,10.0,South,3.5,-,0.00,Rain,Light Rain,190,2013-08-31 21:56:00
6:56 PM,80.1,72.0,76,29.79,9.0,WSW,4.6,-,0.00,,Partly Cloudy,240,2013-08-31 22:56:00
7:56 PM,79.0,71.1,77,29.81,9.0,Calm,Calm,-,N/A,,Clear,0,2013-08-31 23:56:00
8:56 PM,79.0,71.1,77,29.82,9.0,SE,6.9,-,N/A,,Clear,130,2013-09-01 00:56:00
9:56 PM,78.1,71.1,79,29.84,8.0,Calm,Calm,-,N/A,,Scattered Clouds,0,2013-09-01 01:56:00
10:56 PM,77.0,71.1,82,29.84,8.0,Calm,Calm,-,N/A,,Mostly Cloudy,0,2013-09-01 02:56:00
11:56 PM,75.0,71.1,87,29.82,7.0,SW,3.5,-,N/A,,Clear,220,2013-09-01 03:56:00